Location: Blanot
(47.1713°N, 4.2340°E)
Time: 20:13:16
(UTC+00:00)

SL-16 R/B - Visible Passes

Search period start: 27 October 2020 00:00
Search period end: 06 November 2020 00:00
Orbit: 842 x 846 km, 71.0° (Epoch: 27 October)

Date Brightness Start Highest point End Pass type
(mag) Time Alt. Az. Time Alt. Az. Time Alt. Az.
27 Oct 4.3 04:15:55 10° N 04:20:31 24° NE 04:25:05 10° E visible
28 Oct 4.3 04:01:38 10° N 04:06:10 24° NE 04:10:41 10° E visible
28 Oct 2.2 05:45:12 10° NNW 05:50:52 73° WSW 05:56:31 10° SSE visible
29 Oct 4.3 03:47:21 10° N 03:51:49 23° NE 03:56:16 10° E visible
29 Oct 2.2 05:30:52 10° NNW 05:36:34 76° WSW 05:42:12 10° SSE visible
30 Oct 4.3 03:33:03 10° N 03:37:28 22° NE 03:41:52 10° E visible
30 Oct 2.2 05:16:33 10° NNW 05:22:15 79° WSW 05:27:55 10° SSE visible
31 Oct 4.4 03:18:46 10° N 03:23:07 22° NE 03:27:27 10° E visible
31 Oct 2.1 05:02:14 10° NNW 05:07:56 81° WSW 05:13:36 10° SSE visible
01 Nov 4.4 03:05:02 12° N 03:08:46 21° NE 03:13:03 10° E visible
01 Nov 2.1 04:47:54 10° NNW 04:53:37 84° WSW 04:59:17 10° SSE visible
01 Nov 4.0 18:00:51 10° SE 18:01:56 14° SE 18:01:56 14° SE visible
01 Nov 4.2 19:42:29 10° SSW 19:43:54 18° SW 19:43:54 18° SW visible
02 Nov 4.4 02:51:51 16° N 02:54:25 21° NE 02:58:38 10° E visible
02 Nov 2.1 04:33:46 11° NNW 04:39:18 87° WSW 04:44:59 10° SSE visible
02 Nov 3.6 17:46:40 10° SE 17:49:21 17° ESE 17:49:21 17° ESE visible
02 Nov 3.3 19:28:09 10° SSW 19:31:19 35° SW 19:31:19 35° SW visible
03 Nov 4.4 02:38:49 19° NNE 02:40:05 20° NE 02:44:13 10° E visible
03 Nov 2.1 04:20:45 19° NNW 04:24:59 89° W 04:30:40 10° SSE visible
03 Nov 3.5 17:32:30 10° SE 17:36:07 18° E 17:36:40 17° E visible
03 Nov 2.4 19:13:50 10° SSW 19:18:37 63° SW 19:18:37 63° SW visible
04 Nov 4.4 02:25:57 20° NE 02:25:57 20° NE 02:29:48 10° E visible
04 Nov 2.1 04:07:54 32° NNW 04:10:41 88° ENE 04:16:21 10° SSE visible
04 Nov 3.7 05:50:50 10° WNW 05:53:57 15° W 05:57:05 10° SW visible
04 Nov 3.6 17:18:20 10° SE 17:21:49 17° E 17:23:50 14° ENE visible
04 Nov 2.2 18:59:30 10° SSW 19:05:11 81° WNW 19:05:46 71° N visible
04 Nov 4.8 20:46:20 10° W 20:47:42 14° WNW 20:47:42 14° WNW visible
05 Nov 4.7 02:13:14 17° ENE 02:13:14 17° ENE 02:15:23 10° E visible
05 Nov 2.1 03:55:11 58° NNW 03:56:22 85° ENE 04:02:02 10° SSE visible
05 Nov 3.7 05:37:08 12° WNW 05:39:41 16° W 05:42:57 10° SW visible
05 Nov 3.7 17:04:11 10° SE 17:07:32 16° E 17:10:50 10° ENE visible
05 Nov 2.1 18:45:12 10° SSW 18:50:52 84° WNW 18:52:46 44° NNE visible
05 Nov 4.6 20:31:55 10° W 20:34:41 18° WNW 20:34:41 18° WNW visible
